| time (UTC) | temp C | wind direction | speed KPH | gust KPH | rain 1hr cm | rain 24hr cm | rain mn cm | humidity % | barometer mb |
| 20260504205018 | 24 | 48 | 14.5 | 27.4 | 0.00 | 0.00 | 0.00 | 30 | 1009.9 |
| 20260504204537 | 25 | 48 | 8.0 | 25.7 | 0.00 | 0.00 | 0.00 | 31 | 1010.1 |
| 20260504204018 | 25 | 49 | 11.3 | 20.9 | 0.00 | 0.00 | 0.00 | 30 | 1009.9 |
| 20260504203517 | 25 | 48 | 8.0 | 19.3 | 0.00 | 0.00 | 0.00 | 29 | 1010.0 |
| 20260504203046 | 25 | 49 | 4.8 | 12.9 | 0.00 | 0.00 | 0.00 | 29 | 1009.9 |
| 20260504202519 | 25 | 49 | 6.4 | 17.7 | 0.00 | 0.00 | 0.00 | 30 | 1010.0 |
| 20260504202018 | 25 | 49 | 4.8 | 19.3 | 0.00 | 0.00 | 0.00 | 30 | 1010.1 |
| 20260504201540 | 25 | 49 | 9.7 | 19.3 | 0.00 | 0.00 | 0.00 | 30 | 1010.2 |
| 20260504201018 | 25 | 49 | 6.4 | 14.5 | 0.00 | 0.00 | 0.00 | 29 | 1010.2 |
| 20260504200521 | 24 | 49 | 4.8 | 16.1 | 0.00 | 0.00 | 0.00 | 30 | 1010.3 |
| 20260504200038 | 24 | 49 | 6.4 | 16.1 | 0.00 | 0.00 | 0.00 | 30 | 1010.6 |
| 20260504195517 | 24 | 49 | 9.7 | 19.3 | 0.00 | 0.00 | 0.00 | 31 | 1010.7 |
| 20260504195017 | 24 | 49 | 8.0 | 20.9 | 0.00 | 0.00 | 0.00 | 29 | 1010.7 |
| 20260504194539 | 25 | 49 | 12.9 | 20.9 | 0.00 | 0.00 | 0.00 | 30 | 1010.7 |
| 20260504194018 | 25 | 49 | 6.4 | 17.7 | 0.00 | 0.00 | 0.00 | 30 | 1010.7 |
| 20260504193520 | 25 | 49 | 6.4 | 19.3 | 0.00 | 0.00 | 0.00 | 30 | 1010.7 |
| 20260504193037 | 24 | 49 | 6.4 | 19.3 | 0.00 | 0.00 | 0.00 | 30 | 1010.7 |
| 20260504192519 | 24 | 49 | 9.7 | 19.3 | 0.00 | 0.00 | 0.00 | 30 | 1010.9 |
| 20260504192016 | 24 | 49 | 6.4 | 20.9 | 0.00 | 0.00 | 0.00 | 30 | 1011.1 |
| 20260504191540 | 23 | 49 | 11.3 | 24.1 | 0.00 | 0.00 | 0.00 | 30 | 1011.2 |
| 20260504191018 | 24 | 49 | 11.3 | 24.1 | 0.00 | 0.00 | 0.00 | 30 | 1011.2 |
| 20260504190518 | 24 | 49 | 6.4 | 22.5 | 0.00 | 0.00 | 0.00 | 29 | 1011.2 |
| 20260504190034 | 24 | 49 | 8.0 | 22.5 | 0.00 | 0.00 | 0.00 | 29 | 1011.4 |
| 20260504185517 | 24 | 49 | 3.2 | 25.7 | 0.00 | 0.00 | 0.00 | 30 | 1011.7 |
| 20260504185017 | 24 | 49 | 11.3 | 25.7 | 0.00 | 0.00 | 0.00 | 30 | 1011.8 |
| 20260504184535 | 24 | 49 | 11.3 | 25.7 | 0.00 | 0.00 | 0.00 | 30 | 1011.8 |
| 20260504184018 | 24 | 49 | 8.0 | 22.5 | 0.00 | 0.00 | 0.00 | 30 | 1011.8 |
| 20260504183516 | 24 | 49 | 6.4 | 16.1 | 0.00 | 0.00 | 0.00 | 31 | 1011.9 |
| 20260504183037 | 23 | 49 | 3.2 | 17.7 | 0.00 | 0.00 | 0.00 | 31 | 1011.9 |
| 20260504182522 | 23 | 49 | 3.2 | 17.7 | 0.00 | 0.00 | 0.00 | 30 | 1012.0 |
| 20260504182018 | 23 | 49 | 8.0 | 24.1 | 0.00 | 0.00 | 0.00 | 31 | 1012.0 |
| 20260504181538 | 23 | 49 | 8.0 | 24.1 | 0.00 | 0.00 | 0.00 | 31 | 1012.2 |
| 20260504181020 | 23 | 49 | 11.3 | 22.5 | 0.00 | 0.00 | 0.00 | 32 | 1012.2 |
| 20260504180519 | 23 | 49 | 11.3 | 22.5 | 0.00 | 0.00 | 0.00 | 32 | 1012.2 |
| 20260504180045 | 23 | 49 | 4.8 | 22.5 | 0.00 | 0.00 | 0.00 | 32 | 1012.3 |
| 20260504175518 | 22 | 49 | 11.3 | 22.5 | 0.00 | 0.00 | 0.00 | 32 | 1012.3 |
| 20260504175018 | 22 | 49 | 6.4 | 20.9 | 0.00 | 0.00 | 0.00 | 32 | 1012.5 |
| 20260504174532 | 22 | 49 | 9.7 | 20.9 | 0.00 | 0.00 | 0.00 | 32 | 1012.6 |
| 20260504174018 | 22 | 49 | 6.4 | 27.4 | 0.00 | 0.00 | 0.00 | 33 | 1012.5 |
| 20260504173518 | 22 | 49 | 9.7 | 27.4 | 0.00 | 0.00 | 0.00 | 33 | 1012.6 |
| 20260504173035 | 22 | 49 | 4.8 | 14.5 | 0.00 | 0.00 | 0.00 | 33 | 1012.6 |
| 20260504172518 | 22 | 49 | 6.4 | 16.1 | 0.00 | 0.00 | 0.00 | 33 | 1012.7 |
| 20260504172016 | 22 | 49 | 8.0 | 22.5 | 0.00 | 0.00 | 0.00 | 33 | 1012.9 |
| 20260504171539 | 22 | 49 | 3.2 | 22.5 | 0.00 | 0.00 | 0.00 | 33 | 1012.9 |
| 20260504171019 | 22 | 49 | 12.9 | 22.5 | 0.00 | 0.00 | 0.00 | 34 | 1013.0 |
| 20260504170518 | 21 | 49 | 6.4 | 19.3 | 0.00 | 0.00 | 0.00 | 34 | 1013.1 |
| 20260504151019 | 18 | 49 | 9.7 | 22.5 | 0.00 | 0.00 | 0.00 | 36 | 1014.4 |
| 20260504150518 | 18 | 48 | 4.8 | 12.9 | 0.00 | 0.00 | 0.00 | 36 | 1014.4 |
| 20260504141019 | 16 | 48 | 6.4 | 11.3 | 0.00 | 0.00 | 0.00 | 41 | 1014.3 |
| 20260504140518 | 16 | 48 | 3.2 | 9.7 | 0.00 | 0.00 | 0.00 | 42 | 1014.3 |
| 20260504130519 | 12 | 48 | 3.2 | 9.7 | 0.00 | 0.00 | 0.00 | 53 | 1014.9 |
| 20260504110518 | 9 | 48 | 3.2 | 6.4 | 0.00 | 0.00 | 0.00 | 61 | 1015.2 |
| 20260504100518 | 9 | 48 | 0.0 | 3.2 | 0.00 | 0.00 | 0.00 | 60 | 1015.2 |
| 20260504081537 | 10 | 48 | 1.6 | 6.4 | 0.00 | 0.00 | 0.00 | 53 | 1015.4 |
| 20260504081022 | 10 | 48 | 1.6 | 6.4 | 0.00 | 0.00 | 0.00 | 53 | 1015.5 |
| 20260504080517 | 10 | 48 | 1.6 | 6.4 | 0.00 | 0.00 | 0.00 | 53 | 1015.3 |
| 20260504050521 | 10 | 0 | 0.0 | 1.6 | 0.00 | 0.00 | 0.00 | 48 | 1016.0 |
| 20260504045518 | 10 | 48 | 0.0 | 1.6 | 0.00 | 0.00 | 0.00 | 48 | 1016.0 |
| 20260504045018 | 10 | 0 | 0.0 | 1.6 | 0.00 | 0.00 | 0.00 | 49 | 1016.0 |
| 20260504044539 | 10 | 48 | 0.0 | 1.6 | 0.00 | 0.00 | 0.00 | 48 | 1016.1 |
| 20260504044018 | 10 | 48 | 0.0 | 1.6 | 0.00 | 0.00 | 0.00 | 48 | 1016.1 |
| 20260504043518 | 10 | 48 | 0.0 | 1.6 | 0.00 | 0.00 | 0.00 | 49 | 1016.0 |
| 20260504043037 | 10 | 48 | 0.0 | 1.6 | 0.00 | 0.00 | 0.00 | 48 | 1016.1 |
| 20260504042518 | 10 | 0 | 0.0 | 1.6 | 0.00 | 0.00 | 0.00 | 47 | 1015.9 |
| 20260504042019 | 10 | 0 | 0.0 | 1.6 | 0.00 | 0.00 | 0.00 | 46 | 1015.8 |
| 20260504041535 | 10 | 48 | 0.0 | 1.6 | 0.00 | 0.00 | 0.00 | 45 | 1015.9 |
| 20260504041019 | 11 | 48 | 0.0 | 3.2 | 0.00 | 0.00 | 0.00 | 44 | 1015.9 |
| 20260504040519 | 11 | 48 | 0.0 | 3.2 | 0.00 | 0.00 | 0.00 | 44 | 1015.8 |
| 20260504040100 | 11 | 48 | 1.6 | 3.2 | 0.00 | 0.00 | 0.00 | 43 | 1015.9 |
| 20260504035520 | 11 | 48 | 0.0 | 4.8 | 0.00 | 0.00 | 0.00 | 43 | 1015.9 |
| 20260504035019 | 11 | 48 | 1.6 | 4.8 | 0.00 | 0.00 | 0.00 | 43 | 1015.9 |
| 20260504034538 | 11 | 48 | 1.6 | 3.2 | 0.00 | 0.00 | 0.00 | 43 | 1016.0 |
| 20260504034018 | 11 | 48 | 1.6 | 4.8 | 0.00 | 0.00 | 0.00 | 42 | 1016.0 |
| 20260504033518 | 11 | 48 | 1.6 | 4.8 | 0.00 | 0.00 | 0.00 | 42 | 1016.1 |
| 20260504033038 | 11 | 48 | 1.6 | 4.8 | 0.00 | 0.00 | 0.00 | 42 | 1016.0 |
| 20260504032522 | 11 | 48 | 3.2 | 6.4 | 0.00 | 0.00 | 0.00 | 41 | 1015.9 |
| 20260504032019 | 11 | 48 | 1.6 | 6.4 | 0.00 | 0.00 | 0.00 | 41 | 1015.9 |
| 20260504031537 | 11 | 48 | 1.6 | 4.8 | 0.00 | 0.00 | 0.00 | 41 | 1015.7 |
| 20260504031015 | 11 | 48 | 1.6 | 4.8 | 0.00 | 0.00 | 0.00 | 40 | 1015.8 |
| 20260504030520 | 11 | 48 | 1.6 | 3.2 | 0.00 | 0.00 | 0.00 | 40 | 1015.8 |
| 20260504030036 | 11 | 48 | 1.6 | 3.2 | 0.00 | 0.00 | 0.00 | 40 | 1015.8 |
| 20260504025523 | 11 | 48 | 0.0 | 4.8 | 0.00 | 0.00 | 0.00 | 40 | 1015.8 |
| 20260504025019 | 11 | 48 | 1.6 | 6.4 | 0.00 | 0.00 | 0.00 | 39 | 1015.7 |
| 20260504024542 | 11 | 49 | 1.6 | 6.4 | 0.00 | 0.00 | 0.00 | 39 | 1015.6 |
| 20260504024023 | 11 | 48 | 3.2 | 6.4 | 0.00 | 0.00 | 0.00 | 39 | 1015.6 |
| 20260504023520 | 11 | 48 | 3.2 | 6.4 | 0.00 | 0.00 | 0.00 | 39 | 1015.6 |
| 20260504023037 | 11 | 48 | 3.2 | 4.8 | 0.00 | 0.00 | 0.00 | 40 | 1015.6 |
| 20260504022518 | 11 | 49 | 1.6 | 3.2 | 0.00 | 0.00 | 0.00 | 42 | 1015.6 |
| 20260504022020 | 11 | 48 | 0.0 | 3.2 | 0.00 | 0.00 | 0.00 | 43 | 1015.6 |
| 20260504021537 | 11 | 0 | 0.0 | 0.0 | 0.00 | 0.00 | 0.00 | 45 | 1015.6 |
| 20260504021021 | 11 | 0 | 0.0 | 1.6 | 0.00 | 0.00 | 0.00 | 44 | 1015.5 |
| 20260504020518 | 11 | 0 | 0.0 | 1.6 | 0.00 | 0.00 | 0.00 | 43 | 1015.5 |
| 20260504020037 | 11 | 48 | 0.0 | 1.6 | 0.00 | 0.00 | 0.00 | 44 | 1015.4 |
| 20260504015515 | 11 | 0 | 0.0 | 1.6 | 0.00 | 0.00 | 0.00 | 45 | 1015.4 |
| 20260504015018 | 10 | 0 | 0.0 | 0.0 | 0.00 | 0.00 | 0.00 | 47 | 1015.4 |
| 20260504014542 | 10 | 0 | 0.0 | 0.0 | 0.00 | 0.00 | 0.00 | 48 | 1015.3 |
| 20260504014019 | 10 | 0 | 0.0 | 0.0 | 0.00 | 0.00 | 0.00 | 47 | 1015.3 |
| 20260504013519 | 10 | 0 | 0.0 | 0.0 | 0.00 | 0.00 | 0.00 | 49 | 1015.2 |
| 20260504013036 | 11 | 0 | 0.0 | 1.6 | 0.00 | 0.00 | 0.00 | 48 | 1015.2 |
| 20260504012519 | 11 | 0 | 0.0 | 1.6 | 0.00 | 0.00 | 0.00 | 47 | 1015.2 |
| 20260504012019 | 11 | 48 | 0.0 | 1.6 | 0.00 | 0.00 | 0.00 | 47 | 1015.1 |
| 20260504011534 | 11 | 0 | 0.0 | 0.0 | 0.00 | 0.00 | 0.00 | 45 | 1015.1 |
| 20260504011018 | 11 | 0 | 0.0 | 0.0 | 0.00 | 0.00 | 0.00 | 43 | 1015.1 |
| 20260504010518 | 12 | 0 | 0.0 | 0.0 | 0.00 | 0.00 | 0.00 | 42 | 1015.1 |
| 20260504010037 | 12 | 0 | 0.0 | 0.0 | 0.00 | 0.00 | 0.00 | 40 | 1015.1 |
| 20260504005520 | 12 | 0 | 0.0 | 0.0 | 0.00 | 0.00 | 0.00 | 39 | 1015.1 |
| 20260504005019 | 13 | 0 | 0.0 | 0.0 | 0.00 | 0.00 | 0.00 | 36 | 1015.1 |
| 20260504004544 | 13 | 0 | 0.0 | 1.6 | 0.00 | 0.00 | 0.00 | 36 | 1015.0 |
| 20260504004019 | 14 | 0 | 0.0 | 1.6 | 0.00 | 0.00 | 0.00 | 34 | 1014.9 |
| 20260504003519 | 14 | 0 | 0.0 | 1.6 | 0.00 | 0.00 | 0.00 | 33 | 1015.0 |
| 20260504003036 | 15 | 48 | 0.0 | 1.6 | 0.00 | 0.00 | 0.00 | 32 | 1014.8 |
| 20260504002518 | 15 | 0 | 0.0 | 1.6 | 0.00 | 0.00 | 0.00 | 31 | 1014.8 |
| 20260504002015 | 15 | 0 | 0.0 | 1.6 | 0.00 | 0.00 | 0.00 | 31 | 1014.8 |
| 20260504001539 | 15 | 0 | 0.0 | 1.6 | 0.00 | 0.00 | 0.00 | 30 | 1014.9 |
| 20260504001018 | 15 | 0 | 0.0 | 1.6 | 0.00 | 0.00 | 0.00 | 30 | 1014.8 |
| 20260504000519 | 15 | 0 | 0.0 | 3.2 | 0.00 | 0.00 | 0.00 | 29 | 1014.7 |
| 20260504000037 | 16 | 0 | 0.0 | 4.8 | 0.00 | 0.00 | 0.00 | 29 | 1014.7 |
| 20260503235519 | 16 | 48 | 0.0 | 4.8 | 0.00 | 0.00 | 0.00 | 28 | 1014.6 |
| 20260503235021 | 16 | 48 | 0.0 | 6.4 | 0.00 | 0.00 | 0.00 | 28 | 1014.6 |
| 20260503234536 | 16 | 48 | 0.0 | 6.4 | 0.00 | 0.00 | 0.00 | 28 | 1014.5 |
| 20260503234017 | 16 | 48 | 1.6 | 11.3 | 0.00 | 0.00 | 0.00 | 28 | 1014.5 |
| 20260503233516 | 16 | 48 | 3.2 | 11.3 | 0.00 | 0.00 | 0.00 | 28 | 1014.5 |
| 20260503233040 | 16 | 48 | 3.2 | 9.7 | 0.00 | 0.00 | 0.00 | 27 | 1014.5 |
| 20260503232517 | 16 | 48 | 3.2 | 8.0 | 0.00 | 0.00 | 0.00 | 27 | 1014.4 |
| 20260503232017 | 16 | 48 | 3.2 | 9.7 | 0.00 | 0.00 | 0.00 | 27 | 1014.4 |
| 20260503231538 | 17 | 48 | 3.2 | 9.7 | 0.00 | 0.00 | 0.00 | 26 | 1014.4 |
| 20260503231017 | 17 | 48 | 3.2 | 8.0 | 0.00 | 0.00 | 0.00 | 26 | 1014.2 |
| 20260503230520 | 17 | 48 | 1.6 | 11.3 | 0.00 | 0.00 | 0.00 | 26 | 1014.2 |
| 20260503230036 | 17 | 48 | 3.2 | 16.1 | 0.00 | 0.00 | 0.00 | 26 | 1014.2 |
| 20260503225516 | 17 | 48 | 6.4 | 16.1 | 0.00 | 0.00 | 0.00 | 26 | 1014.3 |
| 20260503225019 | 17 | 48 | 3.2 | 12.9 | 0.00 | 0.00 | 0.00 | 26 | 1014.4 |
| 20260503224537 | 17 | 48 | 4.8 | 12.9 | 0.00 | 0.00 | 0.00 | 26 | 1014.3 |
| 20260503224018 | 17 | 48 | 3.2 | 12.9 | 0.00 | 0.00 | 0.00 | 26 | 1014.4 |
| 20260503223516 | 17 | 48 | 3.2 | 8.0 | 0.00 | 0.00 | 0.00 | 25 | 1014.4 |
| 20260503223036 | 17 | 48 | 3.2 | 11.3 | 0.00 | 0.00 | 0.00 | 25 | 1014.3 |
| 20260503222517 | 17 | 48 | 3.2 | 11.3 | 0.00 | 0.00 | 0.00 | 26 | 1014.4 |
| 20260503222020 | 17 | 48 | 3.2 | 11.3 | 0.00 | 0.00 | 0.00 | 25 | 1014.3 |
| 20260503221534 | 17 | 48 | 4.8 | 11.3 | 0.00 | 0.00 | 0.00 | 26 | 1014.4 |
| 20260503221016 | 17 | 48 | 1.6 | 9.7 | 0.00 | 0.00 | 0.00 | 26 | 1014.4 |
| 20260503220519 | 17 | 48 | 4.8 | 9.7 | 0.00 | 0.00 | 0.00 | 26 | 1014.4 |
| 20260503220032 | 17 | 48 | 3.2 | 20.9 | 0.00 | 0.00 | 0.00 | 26 | 1014.4 |
| 20260503215516 | 17 | 48 | 4.8 | 20.9 | 0.00 | 0.00 | 0.00 | 26 | 1014.5 |
| 20260503215016 | 17 | 48 | 9.7 | 20.9 | 0.00 | 0.00 | 0.00 | 26 | 1014.4 |
| 20260503214538 | 17 | 51 | 4.8 | 17.7 | 0.00 | 0.00 | 0.00 | 25 | 1014.4 |
| 20260503214017 | 17 | 51 | 6.4 | 12.9 | 0.00 | 0.00 | 0.00 | 26 | 1014.4 |
| 20260503213519 | 17 | 51 | 4.8 | 14.5 | 0.00 | 0.00 | 0.00 | 25 | 1014.5 |
| 20260503213038 | 17 | 51 | 6.4 | 14.5 | 0.00 | 0.00 | 0.00 | 25 | 1014.4 |
| 20260503212517 | 17 | 51 | 4.8 | 12.9 | 0.00 | 0.00 | 0.00 | 26 | 1014.6 |
| 20260503212021 | 16 | 51 | 3.2 | 17.7 | 0.00 | 0.00 | 0.00 | 26 | 1014.5 |
| 20260503211537 | 16 | 51 | 6.4 | 22.5 | 0.00 | 0.00 | 0.00 | 26 | 1014.5 |
| 20260503211025 | 16 | 51 | 8.0 | 22.5 | 0.00 | 0.00 | 0.00 | 26 | 1014.6 |
| 20260503210516 | 17 | 53 | 4.8 | 12.9 | 0.00 | 0.00 | 0.00 | 26 | 1014.5 |
| 20260503210033 | 17 | 53 | 4.8 | 14.5 | 0.00 | 0.00 | 0.00 | 26 | 1014.5 |
| 20260503205519 | 16 | 53 | 6.4 | 17.7 | 0.00 | 0.00 | 0.00 | 26 | 1014.4 |